GW1804 Weather Reports


time (UTC)temp
F
wind
direction
speed
knots
gust
knots
rain 1hr
in
rain 24hr
in
rain mn
in
humidity
%
barometer
mb
20260905191034 76 300 1.7 4.3 0.00 0.00 0.00 73 1014.1
20260905190534 75 269 1.7 4.3 0.00 0.00 0.00 73 1014.0
20260905190100 75 288 1.7 4.3 0.00 0.00 0.00 74 1014.0
20260905185536 75 290 1.7 4.3 0.00 0.00 0.00 72 1014.1
20260905185031 75 323 1.7 4.3 0.00 0.00 0.00 73 1014.1
20260905184607 75 297 0.9 3.5 0.00 0.00 0.00 73 1014.1
20260905184037 75 0 2.6 4.3 0.00 0.00 0.00 72 1014.1
20260905183536 75 294 2.6 6.1 0.00 0.00 0.00 72 1014.1
20260905183052 75 338 1.7 6.1 0.00 0.00 0.00 72 1014.1
20260905182532 75 302 1.7 6.1 0.00 0.00 0.00 71 1014.3
20260905182037 75 305 1.7 6.1 0.00 0.00 0.00 71 1014.3
20260905181558 75 275 2.6 5.2 0.00 0.00 0.00 70 1014.2
20260905181032 75 304 2.6 6.1 0.00 0.00 0.00 67 1014.2
20260905180533 75 292 2.6 6.1 0.00 0.00 0.00 68 1014.2
20260905180112 75 273 1.7 4.3 0.00 0.00 0.00 68 1014.3
20260905175532 75 309 0.9 3.5 0.00 0.00 0.00 68 1014.2
20260905175034 75 311 0.9 3.5 0.00 0.00 0.00 68 1014.2
20260905174554 75 275 0.9 2.6 0.00 0.00 0.00 69 1014.2
20260905174034 74 306 0.9 2.6 0.00 0.00 0.00 69 1014.2
20260905173535 74 233 0.9 2.6 0.00 0.00 0.00 68 1014.2
20260905173127 74 277 0.9 2.6 0.00 0.00 0.00 69 1014.2
20260905172534 73 0 0.0 2.6 0.00 0.00 0.00 69 1014.0
20260905172032 73 0 0.9 2.6 0.00 0.00 0.00 71 1014.0
20260905171600 72 305 0.0 2.6 0.00 0.00 0.00 71 1014.0
20260905171032 72 303 0.9 2.6 0.00 0.00 0.00 70 1014.0
20260905170531 72 287 0.9 2.6 0.00 0.00 0.00 71 1014.0
20260905170058 71 257 0.9 2.6 0.00 0.00 0.00 71 1014.0
20260905165535 71 290 0.9 2.6 0.00 0.00 0.00 73 1014.0
20260905165035 70 311 0.0 2.6 0.00 0.00 0.00 75 1013.9
20260905164600 70 0 0.9 2.6 0.00 0.00 0.00 78 1014.0
20260905164034 69 311 0.0 2.6 0.00 0.00 0.00 79 1013.9
20260905163531 69 311 0.0 2.6 0.00 0.00 0.00 79 1013.9
20260905163101 68 302 0.0 2.6 0.00 0.00 0.00 80 1013.9
20260905162532 68 302 0.0 1.7 0.00 0.00 0.00 81 1013.9
20260905162031 67 318 0.0 2.6 0.00 0.00 0.00 83 1013.9
20260905161601 67 265 0.0 2.6 0.00 0.00 0.00 84 1013.8
20260905161035 67 265 0.0 2.6 0.00 0.00 0.00 85 1013.8
20260905160532 67 307 0.9 2.6 0.00 0.00 0.00 87 1013.8
20260905160101 66 0 0.0 1.7 0.00 0.00 0.00 88 1013.8
20260905155536 66 215 0.0 1.7 0.00 0.00 0.00 89 1013.9
20260905155031 66 0 0.0 1.7 0.00 0.00 0.00 89 1014.0
20260905154600 65 0 0.0 1.7 0.00 0.00 0.00 90 1013.9
20260905154038 65 0 0.0 1.7 0.00 0.00 0.00 90 1013.9
20260905153535 65 0 0.0 0.9 0.00 0.00 0.00 90 1013.9
20260905153051 64 0 0.0 0.9 0.00 0.00 0.00 90 1013.7
20260905152532 64 0 0.0 0.9 0.00 0.00 0.00 91 1013.7
20260905152032 64 0 0.0 0.9 0.00 0.00 0.00 91 1013.7
20260905151601 63 0 0.0 0.0 0.00 0.00 0.00 90 1013.7
20260905151036 63 0 0.0 0.9 0.00 0.00 0.00 90 1013.7
20260905150532 63 0 0.0 0.9 0.00 0.00 0.00 90 1013.6
20260905150054 63 0 0.0 0.9 0.00 0.00 0.00 90 1013.6
20260905145537 63 0 0.0 0.0 0.00 0.00 0.00 90 1013.5
20260905145035 63 0 0.0 0.0 0.00 0.00 0.00 90 1013.5
20260905144552 63 0 0.0 0.0 0.00 0.00 0.00 90 1013.5
20260905144034 62 0 0.0 0.0 0.00 0.00 0.00 90 1013.4
20260905143532 63 0 0.0 0.0 0.00 0.00 0.00 90 1013.2
20260905143052 63 0 0.0 0.9 0.00 0.00 0.00 90 1013.2
20260905142535 63 0 0.0 0.9 0.00 0.00 0.00 90 1013.2
20260905142032 62 0 0.0 0.9 0.00 0.00 0.00 90 1013.2
20260905141557 62 0 0.0 0.9 0.00 0.00 0.00 90 1013.0
20260905141034 62 0 0.0 0.9 0.00 0.00 0.00 90 1012.9
20260905140532 62 0 0.0 0.0 0.00 0.00 0.00 90 1012.9
20260905140100 62 0 0.0 0.0 0.00 0.00 0.00 90 1013.0
20260905135536 62 0 0.0 0.0 0.00 0.00 0.00 89 1013.0
20260905135034 62 0 0.0 0.0 0.00 0.00 0.00 89 1012.9
20260905134606 62 0 0.0 0.0 0.00 0.00 0.00 89 1012.8
20260905134032 62 0 0.0 0.0 0.00 0.00 0.00 89 1012.8
20260905133532 62 0 0.0 0.0 0.00 0.00 0.00 90 1012.7
20260905133100 62 0 0.0 0.0 0.00 0.00 0.00 90 1012.7
20260905132531 62 0 0.0 0.0 0.00 0.00 0.00 90 1012.7
20260905132031 62 0 0.0 0.0 0.00 0.00 0.00 90 1012.5
20260905131600 62 0 0.0 0.0 0.00 0.00 0.00 90 1012.5
20260905131033 62 0 0.0 0.0 0.00 0.00 0.00 90 1012.4
20260905130532 62 0 0.0 0.0 0.00 0.00 0.00 90 1012.4
20260905130055 62 0 0.0 0.0 0.00 0.00 0.00 90 1012.4
20260905125534 62 0 0.0 0.9 0.00 0.00 0.00 90 1012.4
20260905125032 62 0 0.0 0.9 0.00 0.00 0.00 90 1012.5
20260905124604 62 0 0.0 0.9 0.00 0.00 0.00 90 1012.5
20260905124034 62 0 0.0 0.9 0.00 0.00 0.00 90 1012.5
20260905123531 62 0 0.0 0.9 0.00 0.00 0.00 90 1012.5
20260905123106 62 0 0.0 0.9 0.00 0.00 0.00 90 1012.5
20260905122532 62 0 0.0 0.9 0.00 0.00 0.00 90 1012.6
20260905122031 62 0 0.0 0.0 0.00 0.00 0.00 89 1012.6
20260905121559 62 0 0.0 0.0 0.00 0.00 0.00 89 1012.7
20260905121032 63 0 0.0 0.0 0.00 0.00 0.00 89 1012.7
20260905120531 63 0 0.0 0.0 0.00 0.00 0.00 89 1012.6
20260905120105 63 0 0.0 0.0 0.00 0.00 0.00 89 1012.5
20260905115532 63 0 0.0 0.0 0.00 0.00 0.00 90 1012.5
20260905115032 63 0 0.0 0.0 0.00 0.00 0.00 90 1012.4
20260905114611 63 0 0.0 0.0 0.00 0.00 0.00 90 1012.4
20260905114031 63 0 0.0 0.0 0.00 0.00 0.00 90 1012.4
20260905113535 63 0 0.0 0.0 0.00 0.00 0.00 90 1012.4
20260905113100 63 0 0.0 0.9 0.00 0.00 0.00 90 1012.5
20260905112532 63 0 0.0 0.9 0.00 0.00 0.00 90 1012.5
20260905112032 63 0 0.0 1.7 0.00 0.00 0.00 90 1012.6
20260905111646 63 0 0.0 1.7 0.00 0.00 0.00 90 1012.6
20260905111032 63 0 0.0 1.7 0.00 0.00 0.00 90 1012.7
20260905110531 63 0 0.0 1.7 0.00 0.00 0.00 90 1012.8
20260905110051 63 0 0.0 1.7 0.00 0.00 0.00 90 1012.8
20260905105532 63 0 0.0 0.9 0.00 0.00 0.00 89 1012.8
20260905105031 63 0 0.0 0.9 0.00 0.00 0.00 89 1012.7
20260905104550 63 0 0.0 0.9 0.00 0.00 0.00 89 1012.7
20260905104031 63 0 0.0 1.7 0.00 0.00 0.00 89 1012.8
20260905103531 63 0 0.0 1.7 0.00 0.00 0.00 89 1012.8
20260905103102 63 0 0.0 1.7 0.00 0.00 0.00 89 1012.7
20260905102532 63 0 0.0 0.0 0.00 0.00 0.00 89 1012.8
20260905102032 63 0 0.0 0.0 0.00 0.00 0.00 89 1012.8
20260905101556 63 0 0.0 0.9 0.00 0.00 0.00 89 1012.8
20260905101031 63 0 0.0 0.9 0.00 0.00 0.00 89 1012.7
20260905100531 63 0 0.0 1.7 0.00 0.00 0.00 89 1012.8
20260905100058 63 0 0.0 1.7 0.00 0.00 0.00 89 1012.7
20260905095531 63 0 0.0 0.9 0.00 0.00 0.00 89 1012.7
20260905095032 63 0 0.0 0.9 0.00 0.00 0.00 89 1012.9
20260905094552 63 0 0.0 0.9 0.00 0.00 0.00 89 1012.9
20260905094036 64 0 0.0 0.0 0.00 0.00 0.00 89 1012.8
20260905093532 64 0 0.0 0.0 0.00 0.00 0.00 89 1012.8
20260905093117 64 0 0.0 0.0 0.00 0.00 0.00 89 1012.8
20260905092533 64 0 0.0 0.0 0.00 0.00 0.00 89 1012.9
20260905092032 64 0 0.0 0.9 0.00 0.00 0.00 88 1012.9
20260905091556 64 0 0.0 0.9 0.00 0.00 0.00 88 1012.8
20260905091032 64 0 0.0 0.0 0.00 0.00 0.00 88 1012.9
20260905090531 64 0 0.0 0.0 0.00 0.00 0.00 88 1012.8
20260905085532 64 0 0.0 0.0 0.00 0.00 0.00 88 1012.9
20260905085035 64 0 0.0 0.0 0.00 0.00 0.00 88 1013.0
20260905084603 64 0 0.0 0.0 0.00 0.00 0.00 88 1013.0
20260905084031 64 0 0.0 0.0 0.00 0.00 0.00 88 1013.2
20260905083531 64 0 0.0 0.0 0.00 0.00 0.00 88 1013.2
20260905083058 64 0 0.0 0.9 0.00 0.00 0.00 87 1013.3
20260905082533 64 0 0.0 0.9 0.00 0.00 0.00 87 1013.2
20260905082032 64 0 0.0 0.0 0.00 0.00 0.00 87 1013.3
20260905081552 64 0 0.0 0.0 0.00 0.00 0.00 87 1013.4
20260905081033 64 0 0.0 0.0 0.00 0.00 0.00 87 1013.5
20260905080532 64 0 0.0 0.0 0.00 0.00 0.00 87 1013.5
20260905080054 64 0 0.0 0.0 0.00 0.00 0.00 86 1013.5
20260905075533 64 0 0.0 0.0 0.00 0.00 0.00 87 1013.6
20260905075034 64 0 0.0 0.0 0.00 0.00 0.00 86 1013.6
20260905074550 65 0 0.0 0.0 0.00 0.00 0.00 87 1013.8
20260905074032 65 0 0.0 0.0 0.00 0.00 0.00 87 1013.7
20260905073534 65 0 0.0 0.0 0.00 0.00 0.00 87 1013.6
20260905073055 65 0 0.0 0.0 0.00 0.00 0.00 87 1013.7
20260905072532 65 0 0.0 0.0 0.00 0.00 0.00 86 1013.6
20260905072033 65 0 0.0 0.0 0.00 0.00 0.00 86 1013.6
20260905071553 65 0 0.0 0.0 0.00 0.00 0.00 86 1013.6
20260905071031 65 0 0.0 0.0 0.00 0.00 0.00 86 1013.6
20260905070534 65 0 0.0 0.0 0.00 0.00 0.00 86 1013.6
20260905070057 65 0 0.0 0.0 0.00 0.00 0.00 86 1013.7
20260905065532 65 0 0.0 0.0 0.00 0.00 0.00 86 1013.8
20260905065035 65 0 0.0 0.0 0.00 0.00 0.00 86 1013.7
20260905064616 65 0 0.0 0.0 0.00 0.00 0.00 86 1013.7
20260905064036 65 0 0.0 0.0 0.00 0.00 0.00 86 1013.7
20260905063536 65 0 0.0 0.0 0.00 0.00 0.00 86 1013.8
20260905063101 65 0 0.0 0.0 0.00 0.00 0.00 86 1013.7
20260905062535 66 0 0.0 0.0 0.00 0.00 0.00 86 1013.7
20260905062035 66 0 0.0 0.0 0.00 0.00 0.00 86 1013.7
20260905061601 66 0 0.0 0.0 0.00 0.00 0.00 86 1013.6
20260905061036 66 0 0.0 0.0 0.00 0.00 0.00 86 1013.6
20260905060535 66 0 0.0 0.0 0.00 0.00 0.00 86 1013.6
20260905060106 66 0 0.0 0.0 0.00 0.00 0.00 86 1013.6
20260905055533 66 0 0.0 0.0 0.00 0.00 0.00 86 1013.6
20260905055035 66 0 0.0 0.0 0.00 0.00 0.00 86 1013.6
20260905054601 66 0 0.0 0.9 0.00 0.00 0.00 86 1013.5
20260905054040 66 0 0.0 0.9 0.00 0.00 0.00 86 1013.5
20260905053536 66 0 0.0 0.9 0.00 0.00 0.00 86 1013.5
20260905053054 66 0 0.0 0.0 0.00 0.00 0.00 85 1013.6
20260905052537 66 0 0.0 0.0 0.00 0.00 0.00 85 1013.6
20260905052036 66 0 0.0 0.0 0.00 0.00 0.00 85 1013.5
20260905051554 66 0 0.0 0.0 0.00 0.00 0.00 85 1013.6
20260905051036 66 0 0.0 0.0 0.00 0.00 0.00 85 1013.6
20260905050536 66 0 0.0 0.0 0.00 0.00 0.00 85 1013.7
20260905050058 67 0 0.0 0.0 0.00 0.00 0.00 84 1013.7
20260905045538 67 0 0.0 0.0 0.00 0.00 0.00 84 1013.6
20260905045035 67 0 0.0 0.0 0.00 0.00 0.00 84 1013.6
20260905044604 67 0 0.0 0.0 0.00 0.00 0.00 84 1013.5
20260905044037 67 0 0.0 0.0 0.00 0.00 0.00 84 1013.5
20260905043535 67 0 0.0 0.0 0.00 0.00 0.00 84 1013.4
20260905043101 67 0 0.0 0.0 0.00 0.00 0.00 84 1013.4
20260905042535 67 0 0.0 0.0 0.00 0.00 0.00 84 1013.1
20260905042036 67 0 0.0 0.0 0.00 0.00 0.00 84 1013.1
20260905041558 67 0 0.0 0.0 0.00 0.00 0.00 84 1013.1
20260905041035 67 0 0.0 0.9 0.00 0.00 0.00 83 1013.2
20260905040535 67 0 0.0 0.9 0.00 0.00 0.00 83 1013.1
20260905035535 67 0 0.0 0.0 0.00 0.00 0.00 83 1013.2
20260905035032 67 0 0.0 0.9 0.00 0.00 0.00 83 1013.1
20260905034605 67 0 0.0 0.9 0.00 0.00 0.00 83 1013.0
20260905034037 67 0 0.0 0.9 0.00 0.00 0.00 83 1013.0
20260905033535 68 0 0.0 0.9 0.00 0.00 0.00 82 1013.0
20260905033103 68 0 0.0 1.7 0.00 0.00 0.00 82 1013.0
20260905032534 68 0 0.0 1.7 0.00 0.00 0.00 82 1012.9
20260905032035 68 0 0.0 1.7 0.00 0.00 0.00 82 1012.8
20260905031555 68 0 0.0 0.9 0.00 0.00 0.00 81 1012.8
20260905031035 68 291 0.0 0.9 0.00 0.00 0.00 81 1012.9
20260905030535 68 0 0.0 1.7 0.00 0.00 0.00 81 1012.8
20260905030117 69 291 0.0 1.7 0.00 0.00 0.00 80 1012.6
20260905025535 69 0 0.0 1.7 0.00 0.00 0.00 80 1012.5
20260905025035 69 291 0.0 1.7 0.00 0.00 0.00 79 1012.4
20260905024605 69 301 0.0 1.7 0.00 0.00 0.00 79 1012.4
20260905024035 69 0 0.0 1.7 0.00 0.00 0.00 78 1012.5
20260905023534 70 0 0.0 1.7 0.00 0.00 0.00 78 1012.5
20260905023104 70 0 0.0 1.7 0.00 0.00 0.00 77 1012.5
20260905022535 70 252 0.0 3.5 0.00 0.00 0.00 77 1012.6
20260905022035 70 0 0.0 3.5 0.00 0.00 0.00 77 1012.6
20260905021604 71 282 0.9 3.5 0.00 0.00 0.00 76 1012.6
20260905021035 71 300 0.9 3.5 0.00 0.00 0.00 75 1012.6
20260905020539 71 307 1.7 3.5 0.00 0.00 0.00 75 1012.6
20260905020107 72 272 1.7 3.5 0.00 0.00 0.00 74 1012.6
20260905015535 72 250 0.9 5.2 0.00 0.00 0.00 73 1012.5
20260905015038 73 294 1.7 5.2 0.00 0.00 0.00 73 1012.6
20260905014601 73 283 0.9 3.5 0.00 0.00 0.00 73 1012.5
20260905014035 73 325 1.7 3.5 0.00 0.00 0.00 72 1012.5
20260905013535 74 280 0.9 3.5 0.00 0.00 0.00 72 1012.4
20260905013056 74 275 0.9 4.3 0.00 0.00 0.00 72 1012.3
20260905012538 74 277 1.7 4.3 0.00 0.00 0.00 71 1012.4
20260905012034 74 256 1.7 5.2 0.00 0.00 0.00 71 1012.4
20260905011556 74 269 1.7 5.2 0.00 0.00 0.00 71 1012.5
20260905011035 75 265 0.9 6.1 0.00 0.00 0.00 71 1012.5
20260905010538 75 309 2.6 6.1 0.00 0.00 0.00 71 1012.6
20260905005535 75 301 0.9 6.1 0.00 0.00 0.00 71 1012.5
20260905005036 75 330 2.6 6.1 0.00 0.00 0.00 71 1012.4
20260905004608 75 239 0.9 6.1 0.00 0.00 0.00 71 1012.5
20260905004036 75 309 1.7 5.2 0.00 0.00 0.00 70 1012.5
20260905003535 75 254 1.7 5.2 0.00 0.00 0.00 70 1012.6
20260905003058 75 303 1.7 7.8 0.00 0.00 0.00 70 1012.6
20260905002534 76 291 2.6 7.8 0.00 0.00 0.00 69 1012.6
20260905002035 76 212 2.6 5.2 0.00 0.00 0.00 68 1012.5
20260905001601 76 224 1.7 5.2 0.00 0.00 0.00 68 1012.6
20260905001035 76 271 2.6 6.1 0.00 0.00 0.00 68 1012.5
20260905000536 77 239 2.6 6.1 0.00 0.00 0.00 67 1012.5
20260905000106 76 267 1.7 5.2 0.00 0.00 0.00 68 1012.5
20260904235534 76 279 0.9 5.2 0.00 0.00 0.00 67 1012.7
20260904235032 76 258 1.7 6.1 0.00 0.00 0.00 68 1012.5
20260904234608 76 283 2.6 6.1 0.00 0.00 0.00 68 1012.5
20260904234038 76 265 1.7 6.1 0.00 0.00 0.00 68 1012.5
20260904233535 76 205 1.7 6.1 0.00 0.00 0.00 69 1012.7
20260904233057 76 248 2.6 8.7 0.00 0.00 0.00 68 1012.7
20260904232535 76 291 3.5 8.7 0.00 0.00 0.00 67 1012.7
20260904232035 76 286 1.7 6.1 0.00 0.00 0.00 68 1012.6
20260904231554 76 295 2.6 7.0 0.00 0.00 0.00 67 1012.7
20260904231035 76 224 1.7 7.0 0.00 0.00 0.00 68 1012.6
20260904230532 76 301 2.6 6.1 0.00 0.00 0.00 68 1012.6
20260904230053 76 279 2.6 6.1 0.00 0.00 0.00 68 1012.6
20260904225531 76 291 2.6 7.0 0.00 0.00 0.00 68 1012.7
20260904225034 76 236 1.7 7.0 0.00 0.00 0.00 69 1012.7
20260904224603 76 319 3.5 7.0 0.00 0.00 0.00 68 1012.8
20260904224035 76 263 2.6 7.8 0.00 0.00 0.00 69 1012.8
20260904223535 76 259 3.5 8.7 0.00 0.00 0.00 68 1012.7
20260904223059 76 301 3.5 9.6 0.00 0.00 0.00 69 1012.7
20260904222537 76 273 3.5 9.6 0.00 0.00 0.00 67 1012.8
20260904222035 76 302 2.6 8.7 0.00 0.00 0.00 68 1012.9
20260904221555 76 304 3.5 8.7 0.00 0.00 0.00 66 1012.9
20260904221035 76 313 3.5 9.6 0.00 0.00 0.00 67 1012.9
20260904220538 76 291 3.5 9.6 0.00 0.00 0.00 68 1013.0
20260904220111 76 310 3.5 8.7 0.00 0.00 0.00 68 1013.0
20260904215531 77 272 3.5 8.7 0.00 0.00 0.00 66 1012.9
20260904215039 77 292 3.5 8.7 0.00 0.00 0.00 65 1013.0
20260904214559 77 233 3.5 7.8 0.00 0.00 0.00 67 1012.9
20260904214035 77 271 3.5 8.7 0.00 0.00 0.00 67 1013.0
20260904213535 77 258 3.5 8.7 0.00 0.00 0.00 67 1013.1
20260904213102 77 236 2.6 7.0 0.00 0.00 0.00 68 1013.1
20260904212535 76 227 3.5 7.8 0.00 0.00 0.00 67 1013.1
20260904212032 76 296 3.5 8.7 0.00 0.00 0.00 68 1013.1
20260904211557 76 235 4.3 8.7 0.00 0.00 0.00 69 1013.1
20260904211035 76 270 4.3 8.7 0.00 0.00 0.00 68 1013.1
20260904210535 76 309 3.5 8.7 0.00 0.00 0.00 68 1013.2
20260904210057 76 249 4.3 8.7 0.00 0.00 0.00 69 1013.2
20260904205533 76 274 4.3 7.8 0.00 0.00 0.00 69 1013.2
20260904205033 76 295 3.5 7.8 0.00 0.00 0.00 67 1013.3
20260904204605 76 322 3.5 9.6 0.00 0.00 0.00 68 1013.4
20260904204035 76 236 3.5 9.6 0.00 0.00 0.00 67 1013.4
20260904203536 76 259 3.5 8.7 0.00 0.00 0.00 69 1013.3
20260904203057 76 273 3.5 7.8 0.00 0.00 0.00 69 1013.4
20260904202535 75 264 3.5 8.7 0.00 0.00 0.00 69 1013.4
20260904202035 75 229 4.3 8.7 0.00 0.00 0.00 68 1013.4
20260904201555 75 267 2.6 7.8 0.00 0.00 0.00 69 1013.4
20260904201034 75 257 3.5 7.8 0.00 0.00 0.00 68 1013.4
20260904200533 75 300 3.5 7.8 0.00 0.00 0.00 70 1013.4
20260904200116 75 265 3.5 8.7 0.00 0.00 0.00 69 1013.4
20260904195532 75 271 4.3 8.7 0.00 0.00 0.00 68 1013.4
20260904195032 75 222 3.5 7.0 0.00 0.00 0.00 69 1013.5
20260904194635 75 232 3.5 7.8 0.00 0.00 0.00 69 1013.5
20260904194032 75 233 3.5 7.8 0.00 0.00 0.00 69 1013.5
20260904193535 75 273 2.6 7.8 0.00 0.00 0.00 69 1013.5
20260904193056 75 239 2.6 7.8 0.00 0.00 0.00 70 1013.6
20260904192534 75 233 3.5 7.0 0.00 0.00 0.00 69 1013.6
20260904192035 75 294 2.6 7.0 0.00 0.00 0.00 70 1013.6
20260904191608 75 290 2.6 8.7 0.00 0.00 0.00 70 1013.6